EW8668 Weather Reports


time (UTC)temp
C
wind
direction
speed
KPH
gust
KPH
rain 1hr
cm
rain 24hr
cm
rain mn
cm
humidity
%
barometer
mb
20260505181304 16 184 1.6 4.8 0.00 0.99 0.91 66 1011.4
20260505180806 16 196 1.6 8.0 0.00 0.99 0.91 63 1011.3
20260505174805 16 198 3.2 12.9 0.00 0.99 0.91 63 1011.0
20260505174305 16 197 1.6 4.8 0.00 0.99 0.91 63 1011.1
20260505173806 16 195 3.2 8.0 0.00 0.99 0.91 61 1011.2
20260505173305 17 192 1.6 8.0 0.00 0.99 0.91 60 1011.3
20260505171805 18 193 1.6 8.0 0.00 0.99 0.91 56 1011.0
20260505171306 18 206 3.2 9.7 0.00 1.02 0.91 55 1010.8
20260505170804 18 207 4.8 8.0 0.00 1.02 0.91 53 1010.9
20260505170306 19 192 3.2 9.7 0.00 1.02 0.91 52 1011.1
20260505164805 18 208 3.2 8.0 0.00 1.02 0.91 53 1011.0
20260505164304 18 214 1.6 16.1 0.00 1.02 0.91 54 1011.2
20260505163804 19 221 3.2 11.3 0.00 1.02 0.91 54 1011.0
20260505163306 18 201 4.8 11.3 0.00 1.02 0.91 53 1011.0
20260505161806 19 167 3.2 8.0 0.00 1.02 0.91 55 1011.1
20260505161304 20 165 3.2 11.3 0.00 1.04 0.91 55 1011.1
20260505160805 19 214 3.2 11.3 0.00 1.04 0.91 57 1011.2
20260505160304 19 206 3.2 11.3 0.00 1.04 0.91 57 1011.3
20260505153304 19 209 4.8 24.1 0.00 1.04 0.91 57 1010.7
20260505151804 19 234 3.2 19.3 0.00 1.04 0.91 61 1010.9
20260505151306 20 196 3.2 9.7 0.00 1.04 0.91 64 1010.7
20260505150805 20 217 4.8 11.3 0.00 1.04 0.91 63 1010.8
20260505150304 20 180 3.2 22.5 0.00 1.04 0.91 63 1010.8
20260505124805 21 199 4.8 9.7 0.00 1.04 0.91 61 1010.8
20260505124305 21 219 1.6 11.3 0.00 1.04 0.91 64 1010.6
20260505123805 20 202 1.6 8.0 0.00 1.04 0.91 66 1011.0
20260505123304 20 187 3.2 12.9 0.00 1.04 0.91 67 1011.2
20260505121806 20 21 3.2 4.8 0.00 1.04 0.91 67 1011.3
20260505120804 18 297 1.6 8.0 0.00 1.04 0.91 70 1011.3
20260505120305 18 339 3.2 8.0 0.00 1.04 0.91 73 1011.3
20260505114805 19 17 1.6 3.2 0.00 1.04 0.91 74 1011.6
20260505114305 18 29 1.6 4.8 0.00 1.04 0.91 76 1011.5
20260505113804 18 78 1.6 8.0 0.00 1.04 0.91 75 1011.7
20260505113305 18 29 3.2 8.0 0.00 1.04 0.91 73 1011.4
20260505111804 18 76 3.2 4.8 0.00 1.04 0.91 75 1011.8
20260505111304 19 3 3.2 8.0 0.00 1.04 0.91 73 1011.7
20260505110806 18 15 3.2 8.0 0.00 1.04 0.91 75 1011.9
20260505110304 18 48 1.6 14.5 0.00 1.04 0.91 78 1011.7
20260505101804 19 310 1.6 8.0 0.03 1.04 0.91 76 1011.9
20260505101305 19 44 3.2 8.0 0.03 1.04 0.91 75 1011.8
20260505100306 18 210 1.6 8.0 0.03 1.04 0.91 83 1011.6
20260505094805 16 119 0.0 1.6 0.03 1.04 0.91 88 1012.3
20260505094304 15 232 0.0 4.8 0.03 1.04 0.91 88 1012.5
20260505093804 16 299 1.6 4.8 0.03 1.04 0.91 87 1012.2
20260505093304 16 252 0.0 8.0 0.00 1.02 0.91 87 1012.3
20260505091804 16 172 1.6 3.2 0.00 1.02 0.89 81 1012.3
20260505091304 16 214 1.6 3.2 0.00 1.02 0.89 82 1012.0
20260505090304 17 202 1.6 9.7 0.00 1.02 0.89 80 1012.0
20260505084804 17 198 3.2 8.0 0.00 1.02 0.89 81 1011.5
20260505084305 18 219 3.2 8.0 0.00 1.02 0.89 80 1011.5
20260505083304 18 155 1.6 8.0 0.00 1.02 0.89 85 1011.5
20260505081804 16 192 1.6 9.7 0.00 1.02 0.89 90 1011.8
20260505080805 16 167 1.6 4.8 0.00 1.02 0.89 88 1011.9
20260505080304 16 127 1.6 9.7 0.00 1.02 0.89 91 1012.1
20260505074806 16 112 4.8 8.0 0.00 1.02 0.89 88 1012.0
20260505074304 15 109 1.6 8.0 0.00 1.02 0.89 94 1012.0
20260505073804 15 121 1.6 4.8 0.00 1.02 0.89 94 1012.1
20260505073304 14 126 0.0 8.0 0.00 1.02 0.89 94 1012.2
20260505071804 14 139 1.6 4.8 0.00 1.02 0.89 96 1012.3
20260505070803 13 169 3.2 4.8 0.00 1.02 0.89 96 1012.2
20260505070304 14 179 0.0 4.8 0.00 1.02 0.89 96 1012.1
20260505064803 15 214 0.0 4.8 0.00 1.02 0.89 98 1011.8
20260505064304 14 136 1.6 3.2 0.00 1.02 0.89 98 1011.8
20260505063804 13 330 1.6 4.8 0.00 1.02 0.89 98 1011.9
20260505063305 13 128 1.6 3.2 0.00 1.02 0.89 98 1011.9
20260505061804 13 328 0.0 1.6 0.03 1.02 0.89 98 1012.0
20260505061304 13 49 1.6 3.2 0.03 1.02 0.89 98 1012.1
20260505060304 13 229 0.0 3.2 0.03 1.02 0.89 98 1012.1
20260505054803 12 115 1.6 3.2 0.03 1.04 0.89 98 1011.8
20260505054304 12 72 1.6 3.2 0.03 1.04 0.89 98 1011.9
20260505053804 12 115 0.0 4.8 0.03 1.07 0.89 98 1011.9
20260505053304 12 96 1.6 3.2 0.03 1.09 0.89 98 1011.6
20260505051804 12 107 1.6 3.2 0.00 1.17 0.86 98 1011.8
20260505050804 12 110 3.2 8.0 0.00 1.22 0.86 98 1011.9
20260505041304 12 135 3.2 8.0 0.00 1.22 0.86 98 1011.4
20260505040804 12 164 1.6 9.7 0.03 1.22 0.86 98 1011.5
20260505034804 12 107 1.6 8.0 0.15 1.22 0.86 98 1011.7
20260505034303 12 152 3.2 9.7 0.23 1.22 0.86 98 1011.8
20260505033804 12 117 1.6 12.9 0.30 1.22 0.86 98 1011.7
20260505033304 12 109 3.2 12.9 0.30 1.22 0.86 98 1011.7
20260505031804 12 101 1.6 3.2 0.51 1.22 0.86 98 1011.7
20260505031304 12 28 0.0 3.2 0.51 1.22 0.86 98 1011.8
20260505030804 12 154 1.6 8.0 0.51 1.22 0.84 98 1011.7
20260505030304 12 120 3.2 9.7 0.51 1.19 0.84 98 1012.1
20260505024806 12 66 0.0 3.2 0.38 1.09 0.74 98 1012.2
20260505024305 12 293 0.0 3.2 0.28 0.99 0.64 98 1012.3
20260505023805 12 38 1.6 3.2 0.23 0.94 0.56 97 1012.2
20260505023305 12 41 1.6 8.0 0.23 0.91 0.56 97 1012.1
20260505021805 12 295 1.6 8.0 0.00 0.71 0.36 97 1012.4
20260505021307 12 38 1.6 11.3 0.00 0.71 0.33 97 1012.1
20260505020805 12 78 4.8 12.9 0.00 0.71 0.33 97 1012.1
20260505020305 12 85 8.0 14.5 0.00 0.71 0.33 97 1012.2
20260505014805 12 94 1.6 12.9 0.00 0.71 0.33 97 1012.2
20260505013805 12 114 4.8 12.9 0.00 0.71 0.33 97 1012.3
20260505013307 12 121 4.8 14.5 0.00 0.71 0.33 97 1012.2
20260505011306 12 106 4.8 9.7 0.08 0.71 0.33 97 1012.7
20260505010806 12 100 4.8 9.7 0.10 0.71 0.33 97 1012.7
20260505010305 12 172 3.2 19.3 0.10 0.71 0.33 97 1012.7
20260505004305 11 153 1.6 19.3 0.13 0.71 0.33 97 1012.9
20260505003805 11 96 4.8 12.9 0.13 0.71 0.33 97 1013.1
20260505003305 11 114 4.8 14.5 0.13 0.71 0.33 97 1013.2
20260505001806 11 140 1.6 9.7 0.10 0.66 0.28 97 1013.3
20260505001305 11 98 4.8 16.1 0.08 0.64 0.28 97 1013.5
20260505000805 11 122 6.4 14.5 0.08 0.61 0.25 97 1013.0
20260505000305 11 136 4.8 16.1 0.10 0.61 0.25 97 1013.3
20260504234806 12 133 4.8 14.5 0.10 0.58 0.23 97 1013.2
20260504234305 12 143 4.8 12.9 0.13 0.58 0.23 96 1012.9
20260504233805 12 105 6.4 20.9 0.10 0.56 0.20 96 1013.1
20260504231806 12 207 3.2 16.1 0.15 0.56 0.20 96 1012.8
20260504224805 12 106 11.3 25.7 0.10 0.48 0.10 95 1013.5
20260504223806 12 109 4.8 20.9 0.10 0.46 0.10 95 1014.0
20260504223306 12 129 4.8 29.0 0.10 0.46 0.10 95 1013.8
20260504221306 12 100 12.9 27.4 0.05 0.38 0.03 94 1013.6
20260504220805 12 101 11.3 29.0 0.03 0.38 0.00 94 1014.0
20260504220305 12 120 6.4 25.7 0.03 0.38 0.00 94 1014.0
20260504214806 12 114 8.0 22.5 0.00 0.36 0.36 95 1014.1
20260504214305 12 119 14.5 35.4 0.03 0.36 0.36 95 1014.0
20260504213805 12 102 11.3 45.1 0.03 0.36 0.36 95 1014.2
20260504213305 12 106 8.0 32.2 0.03 0.36 0.36 95 1014.3
20260504211805 12 106 8.0 38.6 0.05 0.36 0.36 95 1014.3
20260504211305 12 106 14.5 32.2 0.05 0.36 0.36 94 1014.3
20260504210805 12 110 11.3 29.0 0.05 0.36 0.36 94 1014.4
20260504210305 12 110 16.1 35.4 0.05 0.36 0.36 94 1014.7
20260504204805 12 95 12.9 29.0 0.08 0.36 0.36 94 1014.8
20260504204305 12 102 6.4 20.9 0.05 0.33 0.33 94 1015.0
20260504203806 12 113 4.8 14.5 0.05 0.33 0.33 93 1015.1
20260504203306 12 108 4.8 27.4 0.05 0.33 0.33 93 1015.0
20260504201805 12 102 4.8 22.5 0.03 0.30 0.30 91 1015.2
20260504201305 12 119 4.8 14.5 0.03 0.30 0.30 91 1015.1
20260504200805 12 106 4.8 14.5 0.00 0.28 0.28 90 1015.3
20260504194805 12 99 8.0 16.1 0.00 0.28 0.28 86 1015.2
20260504194305 12 124 8.0 24.1 0.00 0.28 0.28 86 1015.4
20260504193805 12 116 9.7 24.1 0.00 0.28 0.28 85 1015.5
20260504193306 12 120 8.0 20.9 0.00 0.28 0.28 84 1015.3
20260504191806 12 108 4.8 16.1 0.00 0.28 0.28 85 1015.3
20260504191307 12 115 8.0 16.1 0.00 0.28 0.28 83 1015.4
20260504190805 12 132 3.2 14.5 0.00 0.28 0.28 82 1015.1
20260504190306 12 101 4.8 29.0 0.00 0.28 0.28 82 1015.0
20260504184805 12 107 8.0 27.4 0.00 0.28 0.28 84 1014.9
20260504184305 13 99 8.0 20.9 0.00 0.28 0.28 84 1014.8
20260504183805 13 133 8.0 24.1 0.00 0.28 0.28 84 1014.8
20260504183305 13 107 9.7 25.7 0.00 0.28 0.28 84 1014.7
20260504181805 13 109 14.5 33.8 0.00 0.28 0.28 85 1014.7